Time,TemperatureF,DewpointF,PressureIn,WindDirection,WindDirectionDegrees,WindSpeedMPH,WindSpeedGustMPH,Humidity,HourlyPrecipIn,Conditions,Clouds,dailyrainin,SoftwareType,DateUTC
2013-01-26 00:03:00,53.0,50.0,30.23,West,281,3.0,4.0,88,99.99,,,-99.99,,2013-01-26 05:03:00,
2013-01-26 00:12:00,53.0,50.0,30.23,West,281,3.0,4.0,88,99.99,,,-99.99,,2013-01-26 05:12:00,
2013-01-26 00:23:00,53.0,50.0,30.24,WNW,302,2.0,3.0,90,99.99,,,-99.99,,2013-01-26 05:23:00,
2013-01-26 00:33:00,53.0,50.0,30.24,WNW,288,0.0,2.0,89,99.99,,,-99.99,,2013-01-26 05:33:00,
2013-01-26 00:42:00,53.0,50.0,30.24,WNW,288,0.0,2.0,89,99.99,,,-99.99,,2013-01-26 05:42:00,
2013-01-26 00:52:00,52.0,49.0,30.24,North,0,0.0,0.0,89,99.99,,,-99.99,,2013-01-26 05:52:00,
2013-01-26 01:02:00,51.0,48.0,30.24,North,0,0.0,0.0,89,99.99,,,-99.99,,2013-01-26 06:02:00,
2013-01-26 01:12:00,51.0,48.0,30.24,North,0,0.0,0.0,89,99.99,,,-99.99,,2013-01-26 06:12:00,
2013-01-26 01:21:00,50.0,48.0,30.25,North,0,0.0,0.0,93,99.99,,,-99.99,,2013-01-26 06:21:00,
2013-01-26 01:32:00,50.0,48.0,30.25,North,0,0.0,0.0,93,99.99,,,-99.99,,2013-01-26 06:32:00,
2013-01-26 01:42:00,50.0,48.0,30.25,North,0,0.0,0.0,93,99.99,,,-99.99,,2013-01-26 06:42:00,
2013-01-26 01:52:00,49.0,48.0,30.25,NNE,23,2.0,4.0,95,99.99,,,-99.99,,2013-01-26 06:52:00,
2013-01-26 02:02:00,49.0,48.0,30.25,North,6,3.0,4.0,95,99.99,,,-99.99,,2013-01-26 07:02:00,
2013-01-26 02:12:00,49.0,48.0,30.25,North,6,3.0,4.0,95,99.99,,,-99.99,,2013-01-26 07:12:00,
2013-01-26 02:22:00,50.0,49.0,30.25,North,7,4.0,6.0,97,99.99,,,-99.99,,2013-01-26 07:22:00,
2013-01-26 02:33:00,50.0,49.0,30.24,North,359,3.0,4.0,96,99.99,,,-99.99,,2013-01-26 07:33:00,
2013-01-26 02:41:00,50.0,49.0,30.24,North,359,3.0,4.0,96,99.99,,,-99.99,,2013-01-26 07:41:00,
2013-01-26 02:52:00,49.0,48.0,30.24,North,0,0.0,0.0,96,99.99,,,-99.99,,2013-01-26 07:52:00,
2013-01-26 03:02:00,48.0,47.0,30.25,North,0,0.0,0.0,97,99.99,,,-99.99,,2013-01-26 08:02:00,
2013-01-26 03:11:00,48.0,47.0,30.25,North,0,0.0,0.0,97,99.99,,,-99.99,,2013-01-26 08:11:00,
2013-01-26 03:21:00,48.0,47.0,30.24,SE,125,2.0,3.0,97,99.99,,,-99.99,,2013-01-26 08:21:00,
2013-01-26 03:32:00,48.0,47.0,30.24,North,0,0.0,0.0,97,99.99,,,-99.99,,2013-01-26 08:32:00,
2013-01-26 03:42:00,48.0,47.0,30.24,North,0,0.0,0.0,97,99.99,,,-99.99,,2013-01-26 08:42:00,
2013-01-26 03:54:00,48.0,47.0,30.23,ESE,113,2.0,3.0,97,99.99,,,-99.99,,2013-01-26 08:54:00,
2013-01-26 04:02:00,47.0,46.0,30.24,North,0,0.0,0.0,97,99.99,,,-99.99,,2013-01-26 09:02:00,
2013-01-26 04:11:00,47.0,46.0,30.24,North,0,0.0,0.0,97,99.99,,,-99.99,,2013-01-26 09:11:00,
2013-01-26 04:22:00,47.0,46.0,30.24,North,0,0.0,0.0,97,99.99,,,-99.99,,2013-01-26 09:22:00,
2013-01-26 04:32:00,47.0,46.0,30.24,North,0,0.0,0.0,97,99.99,,,-99.99,,2013-01-26 09:32:00,
2013-01-26 04:42:00,47.0,46.0,30.24,North,0,0.0,0.0,97,99.99,,,-99.99,,2013-01-26 09:42:00,
2013-01-26 04:52:00,47.0,46.0,30.23,SE,138,1.0,2.0,98,99.99,,,-99.99,,2013-01-26 09:52:00,
2013-01-26 05:01:00,47.0,46.0,30.23,North,0,0.0,0.0,98,99.99,,,-99.99,,2013-01-26 10:01:00,
2013-01-26 05:12:00,47.0,46.0,30.23,North,0,0.0,0.0,98,99.99,,,-99.99,,2013-01-26 10:12:00,
2013-01-26 05:21:00,46.0,45.0,30.23,North,0,0.0,0.0,98,99.99,,,-99.99,,2013-01-26 10:21:00,
2013-01-26 05:32:00,47.0,46.0,30.24,North,0,0.0,0.0,98,99.99,,,-99.99,,2013-01-26 10:32:00,
2013-01-26 05:42:00,47.0,46.0,30.24,North,0,0.0,0.0,98,99.99,,,-99.99,,2013-01-26 10:42:00,
2013-01-26 05:52:00,47.0,46.0,30.24,North,0,0.0,0.0,98,99.99,,,-99.99,,2013-01-26 10:52:00,
2013-01-26 06:01:00,46.0,45.0,30.24,North,0,0.0,0.0,98,99.99,,,-99.99,,2013-01-26 11:01:00,
2013-01-26 06:12:00,46.0,45.0,30.24,North,0,0.0,0.0,98,99.99,,,-99.99,,2013-01-26 11:12:00,
2013-01-26 06:22:00,46.0,45.0,30.24,North,0,0.0,0.0,98,99.99,,,-99.99,,2013-01-26 11:22:00,
2013-01-26 06:32:00,46.0,46.0,30.24,North,0,0.0,0.0,99,99.99,,,-99.99,,2013-01-26 11:32:00,
2013-01-26 06:42:00,46.0,46.0,30.24,North,0,0.0,0.0,99,99.99,,,-99.99,,2013-01-26 11:42:00,
2013-01-26 06:52:00,46.0,46.0,30.24,North,0,0.0,0.0,99,99.99,,,-99.99,,2013-01-26 11:52:00,
2013-01-26 07:02:00,45.0,45.0,30.25,North,0,0.0,0.0,99,99.99,,,-99.99,,2013-01-26 12:02:00,
2013-01-26 07:12:00,45.0,45.0,30.25,North,0,0.0,0.0,99,99.99,,,-99.99,,2013-01-26 12:12:00,
2013-01-26 07:23:00,45.0,45.0,30.25,North,0,0.0,0.0,99,99.99,,,-99.99,,2013-01-26 12:23:00,
2013-01-26 07:33:00,46.0,46.0,30.26,North,0,0.0,0.0,99,99.99,,,-99.99,,2013-01-26 12:33:00,
2013-01-26 07:42:00,46.0,46.0,30.26,North,0,0.0,0.0,99,99.99,,,-99.99,,2013-01-26 12:42:00,
2013-01-26 07:52:00,45.0,45.0,30.26,North,0,0.0,0.0,99,99.99,,,-99.99,,2013-01-26 12:52:00,
2013-01-26 08:03:00,45.0,45.0,30.27,North,0,0.0,0.0,99,99.99,,,-99.99,,2013-01-26 13:03:00,
2013-01-26 08:12:00,45.0,45.0,30.27,North,0,0.0,0.0,99,99.99,,,-99.99,,2013-01-26 13:12:00,
2013-01-26 08:22:00,45.0,45.0,30.27,North,0,0.0,0.0,100,99.99,,,-99.99,,2013-01-26 13:22:00,
2013-01-26 08:33:00,48.0,48.0,30.28,North,0,0.0,0.0,100,99.99,,,-99.99,,2013-01-26 13:33:00,
2013-01-26 08:42:00,48.0,48.0,30.28,North,0,0.0,0.0,100,99.99,,,-99.99,,2013-01-26 13:42:00,
2013-01-26 08:52:00,50.0,50.0,30.28,North,0,0.0,0.0,100,99.99,,,-99.99,,2013-01-26 13:52:00,
2013-01-26 09:03:00,53.0,53.0,30.28,North,0,0.0,0.0,100,99.99,,,-99.99,,2013-01-26 14:03:00,
2013-01-26 09:12:00,53.0,53.0,30.28,North,0,0.0,0.0,100,99.99,,,-99.99,,2013-01-26 14:12:00,
2013-01-26 09:22:00,56.0,56.0,30.29,NW,318,0.0,2.0,100,99.99,,,-99.99,,2013-01-26 14:22:00,
2013-01-26 09:32:00,57.0,57.0,30.29,NW,319,1.0,3.0,100,99.99,,,-99.99,,2013-01-26 14:32:00,
2013-01-26 09:43:00,57.0,57.0,30.29,NW,319,1.0,3.0,100,99.99,,,-99.99,,2013-01-26 14:43:00,
2013-01-26 09:53:00,60.0,57.0,30.29,North,352,2.0,4.0,91,99.99,,,-99.99,,2013-01-26 14:53:00,
2013-01-26 10:03:00,62.0,57.0,30.30,NNW,336,2.0,4.0,84,99.99,,,-99.99,,2013-01-26 15:03:00,
2013-01-26 10:12:00,62.0,57.0,30.30,NNW,336,2.0,4.0,84,99.99,,,-99.99,,2013-01-26 15:12:00,
2013-01-26 10:22:00,63.0,55.0,30.30,North,354,4.0,6.0,75,99.99,,,-99.99,,2013-01-26 15:22:00,
2013-01-26 10:32:00,64.0,55.0,30.30,North,354,3.0,5.0,72,99.99,,,-99.99,,2013-01-26 15:32:00,
2013-01-26 10:43:00,64.0,55.0,30.30,North,354,3.0,5.0,72,99.99,,,-99.99,,2013-01-26 15:43:00,
2013-01-26 10:53:00,65.0,55.0,30.30,North,353,3.0,7.0,69,99.99,,,-99.99,,2013-01-26 15:53:00,
2013-01-26 11:02:00,66.0,55.0,30.30,North,353,4.0,7.0,67,99.99,,,-99.99,,2013-01-26 16:02:00,
2013-01-26 11:12:00,66.0,53.0,30.29,NW,322,4.0,6.0,62,99.99,,,-99.99,,2013-01-26 16:12:00,
2013-01-26 11:22:00,66.0,53.0,30.29,NW,322,4.0,6.0,62,99.99,,,-99.99,,2013-01-26 16:22:00,
2013-01-26 11:33:00,68.0,54.0,30.29,NNE,14,2.0,5.0,60,99.99,,,-99.99,,2013-01-26 16:33:00,
2013-01-26 11:42:00,68.0,54.0,30.29,NNE,14,2.0,5.0,60,99.99,,,-99.99,,2013-01-26 16:42:00,
2013-01-26 11:53:00,68.0,53.0,30.29,North,359,3.0,7.0,59,99.99,,,-99.99,,2013-01-26 16:53:00,
2013-01-26 12:03:00,69.0,51.0,30.28,NE,44,3.0,6.0,52,99.99,,,-99.99,,2013-01-26 17:03:00,
2013-01-26 12:13:00,69.0,51.0,30.28,NE,44,3.0,6.0,52,99.99,,,-99.99,,2013-01-26 17:13:00,
2013-01-26 12:22:00,70.0,52.0,30.27,North,8,4.0,7.0,53,99.99,,,-99.99,,2013-01-26 17:22:00,
2013-01-26 12:33:00,70.0,51.0,30.27,NNE,25,5.0,8.0,51,99.99,,,-99.99,,2013-01-26 17:33:00,
2013-01-26 12:42:00,70.0,51.0,30.27,NNE,25,5.0,8.0,51,99.99,,,-99.99,,2013-01-26 17:42:00,
2013-01-26 12:53:00,71.0,52.0,30.26,NNE,23,5.0,10.0,51,99.99,,,-99.99,,2013-01-26 17:53:00,
2013-01-26 13:03:00,72.0,52.0,30.25,West,277,5.0,10.0,49,99.99,,,-99.99,,2013-01-26 18:03:00,
2013-01-26 13:12:00,72.0,52.0,30.25,West,277,5.0,10.0,49,99.99,,,-99.99,,2013-01-26 18:12:00,
2013-01-26 13:22:00,72.0,52.0,30.24,West,276,5.0,12.0,49,99.99,,,-99.99,,2013-01-26 18:22:00,
2013-01-26 13:33:00,74.0,52.0,30.23,West,263,4.0,10.0,46,99.99,,,-99.99,,2013-01-26 18:33:00,
2013-01-26 13:42:00,74.0,52.0,30.23,West,263,4.0,10.0,46,99.99,,,-99.99,,2013-01-26 18:42:00,
2013-01-26 13:53:00,74.0,53.0,30.22,WNW,288,3.0,8.0,48,99.99,,,-99.99,,2013-01-26 18:53:00,
2013-01-26 14:03:00,73.0,51.0,30.21,NNW,347,4.0,9.0,46,99.99,,,-99.99,,2013-01-26 19:03:00,
2013-01-26 14:12:00,73.0,51.0,30.21,NNW,347,4.0,9.0,46,99.99,,,-99.99,,2013-01-26 19:12:00,
2013-01-26 14:22:00,74.0,51.0,30.20,WNW,291,4.0,10.0,44,99.99,,,-99.99,,2013-01-26 19:22:00,
2013-01-26 14:32:00,75.0,50.0,30.20,WNW,285,3.0,7.0,42,99.99,,,-99.99,,2013-01-26 19:32:00,
2013-01-26 14:42:00,75.0,50.0,30.20,WNW,285,3.0,7.0,42,99.99,,,-99.99,,2013-01-26 19:42:00,
2013-01-26 14:53:00,74.0,50.0,30.19,NW,314,3.0,7.0,43,99.99,,,-99.99,,2013-01-26 19:53:00,
2013-01-26 15:02:00,74.0,49.0,30.19,NW,311,3.0,6.0,42,99.99,,,-99.99,,2013-01-26 20:02:00,
2013-01-26 15:11:00,74.0,49.0,30.19,NW,311,3.0,6.0,42,99.99,,,-99.99,,2013-01-26 20:11:00,
2013-01-26 15:22:00,74.0,49.0,30.19,North,6,3.0,6.0,42,99.99,,,-99.99,,2013-01-26 20:22:00,
2013-01-26 15:32:00,74.0,49.0,30.19,NNE,21,3.0,8.0,42,99.99,,,-99.99,,2013-01-26 20:32:00,
2013-01-26 15:42:00,74.0,49.0,30.19,NNE,21,3.0,8.0,42,99.99,,,-99.99,,2013-01-26 20:42:00,
2013-01-26 15:52:00,74.0,47.0,30.19,NNE,18,5.0,8.0,38,99.99,,,-99.99,,2013-01-26 20:52:00,
2013-01-26 16:02:00,75.0,48.0,30.18,WNW,288,1.0,6.0,39,99.99,,,-99.99,,2013-01-26 21:02:00,
2013-01-26 16:12:00,75.0,48.0,30.18,WNW,288,1.0,6.0,39,99.99,,,-99.99,,2013-01-26 21:12:00,
2013-01-26 16:22:00,75.0,50.0,30.18,North,349,2.0,5.0,41,99.99,,,-99.99,,2013-01-26 21:22:00,
2013-01-26 16:32:00,75.0,52.0,30.18,NNE,24,2.0,6.0,44,99.99,,,-99.99,,2013-01-26 21:32:00,
2013-01-26 16:42:00,75.0,52.0,30.18,NNE,24,2.0,6.0,44,99.99,,,-99.99,,2013-01-26 21:42:00,
2013-01-26 16:52:00,74.0,52.0,30.18,NNW,340,3.0,5.0,47,99.99,,,-99.99,,2013-01-26 21:52:00,
2013-01-26 17:02:00,74.0,52.0,30.18,NNW,333,2.0,5.0,47,99.99,,,-99.99,,2013-01-26 22:02:00,
2013-01-26 17:12:00,74.0,52.0,30.18,NNW,333,2.0,5.0,47,99.99,,,-99.99,,2013-01-26 22:12:00,
2013-01-26 17:22:00,73.0,52.0,30.18,North,3,1.0,3.0,47,99.99,,,-99.99,,2013-01-26 22:22:00,
2013-01-26 17:32:00,73.0,53.0,30.19,NNE,20,0.0,2.0,49,99.99,,,-99.99,,2013-01-26 22:32:00,
2013-01-26 17:42:00,73.0,53.0,30.19,NNE,20,0.0,2.0,49,99.99,,,-99.99,,2013-01-26 22:42:00,
2013-01-26 17:52:00,73.0,54.0,30.19,North,0,0.0,0.0,51,99.99,,,-99.99,,2013-01-26 22:52:00,
2013-01-26 18:01:00,72.0,54.0,30.19,North,0,0.0,0.0,54,99.99,,,-99.99,,2013-01-26 23:01:00,
2013-01-26 18:12:00,72.0,54.0,30.19,North,0,0.0,0.0,54,99.99,,,-99.99,,2013-01-26 23:12:00,
2013-01-26 18:22:00,71.0,55.0,30.20,North,0,0.0,0.0,57,99.99,,,-99.99,,2013-01-26 23:22:00,
2013-01-26 18:32:00,69.0,55.0,30.20,North,0,0.0,0.0,60,99.99,,,-99.99,,2013-01-26 23:32:00,
2013-01-26 18:42:00,69.0,55.0,30.20,North,0,0.0,0.0,60,99.99,,,-99.99,,2013-01-26 23:42:00,
2013-01-26 18:52:00,66.0,53.0,30.21,North,0,0.0,0.0,63,99.99,,,-99.99,,2013-01-26 23:52:00,
2013-01-26 19:02:00,64.0,53.0,30.21,North,0,0.0,0.0,67,99.99,,,-99.99,,2013-01-27 00:02:00,
2013-01-26 19:12:00,64.0,53.0,30.21,North,0,0.0,0.0,67,99.99,,,-99.99,,2013-01-27 00:12:00,
2013-01-26 19:21:00,63.0,53.0,30.21,North,0,0.0,0.0,69,99.99,,,-99.99,,2013-01-27 00:21:00,
2013-01-26 19:32:00,61.0,52.0,30.21,North,0,0.0,0.0,72,99.99,,,-99.99,,2013-01-27 00:32:00,
2013-01-26 19:42:00,61.0,52.0,30.21,North,0,0.0,0.0,72,99.99,,,-99.99,,2013-01-27 00:42:00,
2013-01-26 19:52:00,60.0,52.0,30.22,North,0,0.0,0.0,75,99.99,,,-99.99,,2013-01-27 00:52:00,
2013-01-26 20:01:00,59.0,52.0,30.22,North,0,0.0,0.0,77,99.99,,,-99.99,,2013-01-27 01:01:00,
2013-01-26 20:11:00,59.0,52.0,30.22,North,0,0.0,0.0,77,99.99,,,-99.99,,2013-01-27 01:11:00,
2013-01-26 20:22:00,59.0,52.0,30.22,North,0,0.0,0.0,77,99.99,,,-99.99,,2013-01-27 01:22:00,
2013-01-26 20:32:00,58.0,52.0,30.22,North,0,0.0,0.0,81,99.99,,,-99.99,,2013-01-27 01:32:00,
2013-01-26 20:42:00,58.0,52.0,30.22,North,0,0.0,0.0,81,99.99,,,-99.99,,2013-01-27 01:42:00,
2013-01-26 20:52:00,57.0,52.0,30.22,North,0,0.0,0.0,83,99.99,,,-99.99,,2013-01-27 01:52:00,
2013-01-26 21:01:00,57.0,52.0,30.22,North,0,0.0,0.0,84,99.99,,,-99.99,,2013-01-27 02:01:00,
2013-01-26 21:12:00,57.0,52.0,30.22,North,0,0.0,0.0,84,99.99,,,-99.99,,2013-01-27 02:12:00,
2013-01-26 21:22:00,56.0,51.0,30.23,North,0,0.0,0.0,84,99.99,,,-99.99,,2013-01-27 02:22:00,
2013-01-26 21:32:00,56.0,52.0,30.23,North,0,0.0,0.0,87,99.99,,,-99.99,,2013-01-27 02:32:00,
2013-01-26 21:42:00,56.0,52.0,30.23,North,0,0.0,0.0,87,99.99,,,-99.99,,2013-01-27 02:42:00,
2013-01-26 21:52:00,56.0,52.0,30.23,North,0,0.0,0.0,87,99.99,,,-99.99,,2013-01-27 02:52:00,
2013-01-26 22:02:00,56.0,53.0,30.24,West,273,3.0,5.0,90,99.99,,,-99.99,,2013-01-27 03:02:00,
2013-01-26 22:11:00,56.0,53.0,30.24,West,273,3.0,5.0,90,99.99,,,-99.99,,2013-01-27 03:11:00,
2013-01-26 22:21:00,56.0,52.0,30.24,West,278,3.0,5.0,88,99.99,,,-99.99,,2013-01-27 03:21:00,
2013-01-26 22:32:00,56.0,52.0,30.24,WNW,293,3.0,4.0,88,99.99,,,-99.99,,2013-01-27 03:32:00,
2013-01-26 22:42:00,56.0,52.0,30.24,WNW,293,3.0,4.0,88,99.99,,,-99.99,,2013-01-27 03:42:00,
2013-01-26 22:52:00,57.0,54.0,30.25,WNW,294,3.0,4.0,90,99.99,,,-99.99,,2013-01-27 03:52:00,
2013-01-26 23:02:00,57.0,53.0,30.25,NNW,340,0.0,1.0,88,99.99,,,-99.99,,2013-01-27 04:02:00,
2013-01-26 23:12:00,57.0,53.0,30.25,NNW,340,0.0,1.0,88,99.99,,,-99.99,,2013-01-27 04:12:00,
2013-01-26 23:21:00,56.0,52.0,30.25,North,0,0.0,0.0,88,99.99,,,-99.99,,2013-01-27 04:21:00,
2013-01-26 23:32:00,54.0,51.0,30.26,NNE,14,0.0,2.0,90,99.99,,,-99.99,,2013-01-27 04:32:00,
2013-01-26 23:41:00,54.0,51.0,30.26,NNE,14,0.0,2.0,90,99.99,,,-99.99,,2013-01-27 04:41:00,
2013-01-26 23:52:00,54.0,51.0,30.26,NNE,14,0.0,1.0,91,99.99,,,-99.99,,2013-01-27 04:52:00,